Location: Montjean
(48.0167°N, 0.9667°W)
Time: 21:22:06
(UTC+01:00)

ISS - Visible Passes

Search period start: 12 November 2018 00:00
Search period end: 22 November 2018 00:00
Orbit: 402 x 409 km, 51.6° (Epoch: 13 November)

Date Brightness Start Highest point End Pass type
(mag) Time Alt. Az. Time Alt. Az. Time Alt. Az.
12 Nov -2.9 05:51:45 46° SE 05:51:45 46° SE 05:54:10 10° ESE visible
12 Nov -1.7 07:24:57 10° W 07:26:58 15° SW 07:28:57 10° S visible
13 Nov -0.3 05:02:03 11° ESE 05:02:03 11° ESE 05:02:07 10° ESE visible
13 Nov -2.5 06:34:44 24° SW 06:35:07 25° SW 06:37:52 10° SSE visible
14 Nov -1.5 05:45:06 20° SSE 05:45:06 20° SSE 05:46:18 10° SE visible
15 Nov -1.3 06:28:13 11° SSW 06:28:13 11° SSW 06:28:39 10° SSW visible
